Content
SEND FEEDBACK

Daily
Averages
Monthly
Summary
United States of America

BROOKLYN - BENSONHURST, NEW YORK


Home > North America > United States > New York
Elevation: 20 feet     Latitude: 40 35N     Longitude: 073 58W

WEATHER
 
SELECT A DAY
Number of Records: 185,459;   Date Range: 1/1/95 - 8/12/14
 
SHARE

PRINT THIS DATA

[ ← Previous Day ]
WEATHER ALMANAC - JANUARY 23, 2013
[ Next Day → ]
[ °C ]   °F
Weather ElementAverageHighLow
Temperature15.7 °F19.9 °F (1:51 pm)12 °F (4:51 am)
Dewpoint-6.4 °F-2.9 °F (11:51 pm)-9 °F (1:51 am)
Humidity37.7 %47 % (7:51 am)29 % (1:51 pm)
Barometer30.22 in30.27 in (9:51 am)30.18 in (1:51 pm)
Wind Speed13.5 mph20.7 mph (1:51 am)
Wind Gust25.3 mph (1:51 pm)
Weather ElementAverage
Visibility10 mi
Wind DirectionWNW (296.5 °)

Weather ElementTotal
Precipitation---
Heating Degree Days49.1 (Base 65)
Averaged from 23 records on January 23, 2013
WEATHER CONDITIONS BREAKOUT
WIND DIRECTION BREAKOUT
WEATHER BY HOUR - JANUARY 23, 2013
[ °C ]   °F
Local TimeTemperatureDewpointHumidityBarometerVisibilityWind DirectionWind SpeedGust SpeedPrecipitationEventsConditions
1:51 AM12.9 °F-9.0 °F37 %30.22 in10.0 miWNW (290°)20.7 mphClear
2:51 AM12.9 °F-8.0 °F39 %30.24 in10.0 miWNW (290°)15.0 mph23.0 mphClear
3:51 AM12.9 °F-7.1 °F41 %30.23 in10.0 miWNW (290°)11.5 mphClear
4:51 AM12.0 °F-7.1 °F42 %30.23 in10.0 miWest (280°)12.7 mphClear
5:51 AM12.0 °F-5.1 °F46 %30.24 in10.0 miWest (280°)15.0 mphClear
6:51 AM12.0 °F-5.1 °F46 %30.24 in10.0 miWNW (290°)13.8 mphScattered Clouds
7:51 AM12.9 °F-4.0 °F47 %30.25 in10.0 miWest (280°)13.8 mphScattered Clouds
8:51 AM15.1 °F-4.0 °F43 %30.26 in10.0 miWNW (290°)13.8 mphPartly Cloudy
9:51 AM16.0 °F-4.0 °F41 %30.27 in10.0 miWest (280°)12.7 mph19.6 mphScattered Clouds
10:51 AM16.0 °F-5.1 °F39 %30.27 in10.0 miWNW (290°)16.1 mph23.0 mphScattered Clouds
11:51 AM18.0 °F-8.0 °F31 %30.23 in10.0 miWNW (300°)12.7 mph20.7 mphScattered Clouds
12:51 PM19.0 °F-8.0 °F30 %30.19 in10.0 miNW (310°)13.8 mph20.7 mphMostly Cloudy
1:51 PM19.9 °F-8.0 °F29 %30.18 in10.0 miNW (310°)17.3 mph25.3 mphMostly Cloudy
2:51 PM19.0 °F-7.1 °F31 %30.19 in10.0 miWest (270°)16.1 mphMostly Cloudy
3:51 PM19.0 °F-9.0 °F29 %30.18 in10.0 miWNW (290°)13.8 mph23.0 mphMostly Cloudy
4:51 PM18.0 °F-9.0 °F30 %30.19 in10.0 miNW (320°)17.3 mphMostly Cloudy
5:51 PM18.0 °F-7.1 °F33 %30.21 in10.0 miWNW (290°)10.4 mphMostly Cloudy
6:51 PM17.1 °F-9.0 °F31 %30.22 in10.0 miWNW (300°)16.1 mphScattered Clouds
7:51 PM17.1 °F-7.1 °F34 %30.22 in10.0 miWNW (300°)15.0 mphPartly Cloudy
8:51 PM16.0 °F-5.1 °F39 %30.21 in10.0 miWNW (300°)11.5 mphPartly Cloudy
9:51 PM15.1 °F-5.1 °F41 %30.22 in10.0 miNW (320°)9.2 mphPartly Cloudy
10:51 PM15.1 °F-4.0 °F43 %30.22 in10.0 miNW (320°)6.9 mphPartly Cloudy
11:51 PM15.1 °F-2.9 °F45 %30.21 in10.0 miNNW (330°)5.8 mphMostly Cloudy
Hourly data recorded from KJFK, located miles away from Brooklyn - Bensonhurst, New York







STORIES FROM OUR PARTNERS